Location: ????????
(37.9452°N, 23.1472°E)
Time: 05:41:04
(UTC+00:00)

Meteor PRIRODA - Visible Passes

Search period start: 16 July 2024 00:00
Search period end: 26 July 2024 00:00
Orbit: 438 x 450 km, 97.5° (Epoch: 15 July)

Date Brightness Start Highest point End Pass type
(mag) Time Alt. Az. Time Alt. Az. Time Alt. Az.
17 Jul 6.5 18:36:54 10° WSW 18:38:24 13° W 18:39:55 10° WNW visible
20 Jul 5.9 18:17:34 10° SSW 18:20:14 22° W 18:22:55 10° NW visible
22 Jul 6.5 18:37:24 10° WSW 18:38:58 13° W 18:40:32 10° WNW visible
25 Jul 5.9 18:17:30 10° SSW 18:20:13 23° W 18:22:56 10° NW visible
